EW3349 Weather Reports


time (UTC)temp
C
wind
direction
speed
KPH
gust
KPH
rain 1hr
cm
rain 24hr
cm
rain mn
cm
humidity
%
barometer
mb
20260504214934 25 3 1.6 9.7 0.00 0.00 0.00 30 1001.7
20260504213932 24 52 1.6 19.3 0.00 0.00 0.00 30 1001.8
20260504212945 24 34 4.8 19.3 0.00 0.00 0.00 31 1001.8
20260504211933 24 179 4.8 12.9 0.00 0.00 0.00 29 1001.8
20260504210958 25 193 4.8 14.5 0.00 0.00 0.00 28 1001.9
20260504210020 25 173 6.4 14.5 0.00 0.00 0.00 29 1002.0
20260504205014 25 176 4.8 12.9 0.00 0.00 0.00 29 1002.0
20260504203955 25 150 4.8 20.9 0.00 0.00 0.00 29 1002.0
20260504202955 24 125 6.4 20.9 0.00 0.00 0.00 30 1002.3
20260504200807 24 46 6.4 19.3 0.00 0.00 0.00 31 1002.6
20260504195755 24 321 6.4 16.1 0.00 0.00 0.00 31 1002.7
20260504194809 24 355 1.6 12.9 0.00 0.00 0.00 35 1002.9
20260504193753 23 355 4.8 22.5 0.00 0.00 0.00 33 1003.1
20260504192736 23 239 6.4 22.5 0.00 0.00 0.00 33 1003.3
20260504191743 23 161 4.8 19.3 0.00 0.00 0.00 36 1003.3
20260504190728 23 3 4.8 19.3 0.00 0.00 0.00 36 1003.4
20260504185734 22 216 6.4 16.1 0.00 0.00 0.00 37 1003.6
20260504184750 22 30 4.8 20.9 0.00 0.00 0.00 37 1003.6
20260504183808 23 99 4.8 24.1 0.00 0.00 0.00 36 1003.8
20260504182828 22 291 6.4 24.1 0.00 0.00 0.00 37 1003.9
20260504181837 22 326 8.0 24.1 0.00 0.00 0.00 40 1003.9
20260504180802 22 29 4.8 16.1 0.00 0.00 0.00 39 1004.0
20260504175742 22 18 6.4 16.1 0.00 0.00 0.00 43 1004.1
20260504173622 21 336 6.4 19.3 0.00 0.00 0.00 41 1004.3
20260504172636 21 98 6.4 17.7 0.00 0.00 0.00 43 1004.3
20260504171653 21 155 6.4 17.7 0.00 0.00 0.00 42 1004.5
20260504150441 17 354 6.4 19.3 0.00 0.00 0.00 46 1005.5
20260504140226 15 122 6.4 16.1 0.00 0.00 0.00 49 1005.5
20260504130201 13 59 4.8 14.5 0.00 0.00 0.00 51 1006.1
20260504090135 10 253 1.6 12.9 0.00 0.00 0.00 55 1006.7
20260504050441 10 357 0.0 8.0 0.00 0.00 0.00 56 1008.2
20260504045455 10 144 1.6 8.0 0.00 0.00 0.00 56 1008.2
20260504044451 11 8 0.0 8.0 0.00 0.00 0.00 55 1008.2
20260504043506 11 153 1.6 9.7 0.00 0.00 0.00 54 1008.3
20260504042441 11 188 1.6 9.7 0.00 0.00 0.00 54 1008.3
20260504041413 11 151 0.0 8.0 0.00 0.00 0.00 53 1008.3
20260504040411 11 120 1.6 9.7 0.00 0.00 0.00 53 1008.3
20260504035356 11 217 1.6 9.7 0.00 0.00 0.00 53 1008.2
20260504034353 11 170 1.6 8.0 0.00 0.00 0.00 53 1008.2
20260504032135 12 190 0.0 9.7 0.00 0.00 0.00 53 1008.2
20260504031124 12 23 1.6 12.9 0.00 0.00 0.00 52 1008.2
20260504023922 12 51 1.6 8.0 0.00 0.00 0.00 53 1008.4
20260504022937 12 205 0.0 8.0 0.00 0.00 0.00 52 1008.6
20260504021925 11 13 0.0 8.0 0.00 0.00 0.00 53 1008.7
20260504020928 11 223 0.0 6.4 0.00 0.00 0.00 54 1008.6
20260504015943 11 30 0.0 6.4 0.00 0.00 0.00 55 1008.8
20260504014933 11 270 0.0 1.6 0.00 0.00 0.00 57 1008.7
20260504013926 11 105 0.0 0.0 0.00 0.00 0.00 57 1008.6
20260504011735 11 139 1.6 12.9 0.00 0.00 0.00 56 1009.0
20260504010751 11 300 1.6 12.9 0.00 0.00 0.00 55 1008.9
20260504005802 11 342 1.6 12.9 0.00 0.00 0.00 56 1008.8
20260504004746 11 154 1.6 17.7 0.00 0.00 0.00 56 1009.0
20260504003716 11 338 6.4 17.7 0.00 0.00 0.00 56 1009.2
20260504002654 11 351 1.6 12.9 0.00 0.00 0.00 56 1009.4
20260504001626 11 356 4.8 17.7 0.00 0.00 0.00 54 1009.2
20260504000554 12 356 6.4 17.7 0.00 0.00 0.00 53 1009.2
20260503235600 12 338 1.6 16.1 0.00 0.00 0.00 53 1009.0
20260503234556 12 16 4.8 20.9 0.00 0.00 0.00 51 1008.9
20260503233547 12 348 9.7 27.4 0.00 0.00 0.00 51 1009.0
20260503232559 12 309 6.4 27.4 0.00 0.00 0.00 49 1008.9
20260503231559 12 335 6.4 17.7 0.00 0.00 0.00 49 1008.8
20260503230533 12 92 8.0 27.4 0.00 0.00 0.00 47 1008.6
20260503225530 12 3 8.0 27.4 0.00 0.00 0.00 45 1008.5
20260503224505 13 356 4.8 17.7 0.00 0.00 0.00 43 1008.6
20260503223521 13 304 4.8 19.3 0.00 0.00 0.00 41 1008.5
20260503222451 13 2 4.8 19.3 0.00 0.00 0.00 42 1008.3
20260503221512 13 344 0.0 9.7 0.00 0.00 0.00 44 1008.5
20260503220514 13 357 1.6 12.9 0.00 0.00 0.00 44 1008.6